COSMOS 1275 DEB, 39946

Orbit data source: Space-Track

COSMOS 1275 DEB, 39946 is space debris in LEO originally from a launch on Thu, 04 Jun 1981 UTC launched from the Plesetsk Missile And Space Complex (PKMTR). Debris objects in space refer to the collection of defunct objects orbiting the Earth. Examples of debris include non-operational satellites, rocket bodies, and fragments generated from explosions, collisions, or faulty payload assembly.

Loading next visibility...
Identifier
39946, 1981-053NG
Orbit
LEO
Country
Flag of CISCIS
Related business
Manufacturer
Unknown
Mission
Spacecraft
Bus & Motor
Unknown
Mass
Unknown
Launch date (UTC)
1981-06-04 (45 years ago)
Launch vehicle
Unknown
Launch site
Plesetsk Missile And Space Complex (PKMTR)
Object type
Payload
Rocket body
Debris
Shape & HBR
Unknown shape, 0.1 m
Radar Cross Section
Small (<0.1 m²)

Expand to show TLE details & history
Last TLE update: 2 days ago

TLE from 2 days ago
0 COSMOS 1275 DEB
1 39946U 81053NG  25340.23951732  .00000408  00000-0  36850-3 0  9991
2 39946  82.9530 320.0223 0036426  73.5812 286.9347 13.81184505899347
Epoch: 2025-12-06T05:44Z
TLE epoch observation values (Epoch: 2025-12-06T05:44:54.296Z)
Latitude
0.00003°
Longitude
158.52596°
Altitude
954.899 km
Speed
7.378 km/s
True Right ascension
21h 20m 05s
True Declination
0° 00' 00"
Sunlit
Object was in daylight at epoch
Visualization orbit readout
Latitude
Unknown
Longitude
Unknown
Altitude
Unknown
Speed
Unknown
Apparent Right ascension
Unknown
Apparent Declination
Unknown
Sunlit
N/A
Visualization observer readout
Local Sidereal Time
16:23:16
Azimuth
Unknown
Elevation
Unknown
Doppler factor
Unknown
Orbital elements
Apogee altitude
983.547 km
Perigee altitude
930.11 km
Semi-major axis
7,334.965 km
Eccentricity
0.00364
Inclination
82.953°
RAAN
320.0223°
Arg. of periapsis
73.5812°
True anomaly
286.53486°
Mean anomaly
286.9347°
Eccentric anomaly
286.73483°
Mean motion
3.45498 °/min
Orbital period
104.2 mins
BSTAR
0.0003685
Loading maneuver chart data...
Computing Atmospheric mass density...
Loading historical data...
Loading historical data...
Loading historical data...
Loading historical data...
Loading historical data...
Loading historical data...
Loading historical data...

Documentation

Showing up to 5 results
|